{"data":{"norad_id":51721,"intl_designator":"2022-016H","name":"STARLINK-3524","alt_names":[],"object_type":"PAYLOAD","status":"ACTIVE","operator":null,"country":"US","launch_date":"2022-02-21","launch_site_code":"AFETR","launch_vehicle":null,"mission":null,"orbit_class":"UNKNOWN","rcs_meters":null,"size_class":null,"mass_kg":null,"dimensions":null,"purposes":["comms"],"wikipedia_slug":null,"has_3d_model":false,"image_url":null,"decayed_at":null,"tle_current":{"epoch":"2026-05-24T20:08:34.171296Z","epoch_age_seconds":99526,"freshness":"FRESH","line1":"1 51721U 22016H   26144.83928439  .00000036  00000+0  20334-4 0  9994","line2":"2 51721  53.2136 347.2824 0001305  75.9833 284.1304 15.08838081234926","mean_motion":15.08838081,"eccentricity":0.0001305,"inclination_deg":53.2136,"raan_deg":347.2824,"arg_perigee_deg":75.9833,"mean_anomaly_deg":284.1304,"bstar":2.0334e-5,"rev_number":23492,"period_min":95.437676059026,"perigee_km":538.84647042939,"apogee_km":540.65203874184,"semimajor_km":6917.8862545856,"source":"CELESTRAK","updated_at":"2026-05-25T13:38:16.921276Z"}}}